EW6756 Weather Reports


time (UTC)temp
C
wind
direction
speed
KPH
gust
KPH
rain 1hr
cm
rain 24hr
cm
rain mn
cm
humidity
%
barometer
mb
20260505174003 13 22 4.8 12.9 0.00 0.00 0.00 63 1009.8
20260505173503 13 27 4.8 12.9 0.00 0.00 0.00 63 1010.1
20260505173003 13 37 6.4 12.9 0.00 0.00 0.00 63 1010.0
20260505172503 13 27 6.4 12.9 0.00 0.00 0.00 64 1010.1
20260505172216 13 20 4.8 12.9 0.00 0.00 0.00 63 1010.0
20260505171503 13 31 3.2 11.3 0.00 0.00 0.00 63 1010.2
20260505171003 13 30 1.6 8.0 0.00 0.00 0.00 63 1010.1
20260505170503 13 28 3.2 12.9 0.00 0.00 0.00 63 1010.5
20260505170218 13 25 4.8 16.1 0.00 0.00 0.00 63 1010.3
20260505165503 13 28 6.4 16.1 0.00 0.00 0.00 63 1010.2
20260505165218 13 27 6.4 16.1 0.00 0.00 0.00 62 1010.2
20260505164503 13 22 6.4 16.1 0.00 0.00 0.00 62 1010.1
20260505164218 13 16 8.0 16.1 0.00 0.00 0.00 62 1010.2
20260505163503 13 18 8.0 16.1 0.00 0.00 0.00 61 1010.0
20260505163003 13 32 8.0 16.1 0.00 0.00 0.00 61 1010.1
20260505162717 13 35 8.0 16.1 0.00 0.00 0.00 61 1010.3
20260505162003 13 34 8.0 17.7 0.00 0.00 0.00 60 1010.2
20260505161503 13 27 8.0 17.7 0.00 0.00 0.00 60 1010.4
20260505161003 14 29 8.0 17.7 0.00 0.00 0.00 60 1010.3
20260505160503 14 32 8.0 16.1 0.00 0.00 0.00 60 1010.2
20260505153218 14 22 6.4 16.1 0.00 0.00 0.00 58 1010.5
20260505152503 15 25 6.4 19.3 0.00 0.00 0.00 58 1010.6
20260505152218 15 24 8.0 22.5 0.00 0.00 0.00 59 1010.5
20260505151503 15 27 8.0 22.5 0.00 0.00 0.00 58 1010.6
20260505151003 15 29 6.4 16.1 0.00 0.00 0.00 58 1010.5
20260505150503 15 29 6.4 16.1 0.00 0.00 0.00 57 1010.7
20260505140503 15 33 8.0 22.5 0.00 0.00 0.00 58 1010.5
20260505125003 15 21 9.7 22.5 0.00 0.00 0.00 63 1010.9
20260505124718 15 22 9.7 22.5 0.00 0.00 0.00 63 1011.0
20260505124003 15 26 8.0 17.7 0.00 0.00 0.00 64 1011.0
20260505123503 15 25 8.0 17.7 0.00 0.00 0.00 64 1010.9
20260505123003 15 27 8.0 17.7 0.00 0.00 0.00 64 1010.9
20260505122503 14 27 8.0 19.3 0.00 0.00 0.00 64 1010.7
20260505122003 14 26 6.4 19.3 0.00 0.00 0.00 64 1010.8
20260505121503 14 32 8.0 24.1 0.00 0.00 0.00 65 1011.0
20260505121221 14 33 8.0 24.1 0.00 0.00 0.00 65 1010.7
20260505120503 14 32 6.4 17.7 0.00 0.00 0.00 65 1010.9
20260505120004 14 31 8.0 19.3 0.00 0.00 0.00 65 1011.0
20260505115503 14 34 9.7 22.5 0.00 0.00 0.00 65 1011.1
20260505115003 14 41 9.7 22.5 0.00 0.00 0.00 65 1010.9
20260505114717 14 32 8.0 22.5 0.00 0.00 0.00 65 1011.0
20260505114003 14 20 6.4 22.5 0.00 0.00 0.00 66 1010.9
20260505113503 14 31 6.4 22.5 0.00 0.00 0.00 66 1011.0
20260505113003 14 33 8.0 19.3 0.00 0.00 0.00 67 1011.2
20260505112503 14 29 9.7 19.3 0.00 0.00 0.00 67 1011.0
20260505112003 13 24 6.4 17.7 0.00 0.00 0.00 67 1011.0
20260505111503 13 19 8.0 17.7 0.00 0.00 0.00 68 1011.0
20260505111003 13 16 8.0 16.1 0.00 0.00 0.00 68 1011.3
20260505110717 13 29 9.7 19.3 0.00 0.00 0.00 69 1011.2
20260505102218 13 30 6.4 19.3 0.00 0.00 0.00 71 1011.2
20260505101503 13 24 6.4 17.7 0.00 0.00 0.00 72 1011.4
20260505101003 13 28 4.8 17.7 0.00 0.00 0.00 73 1011.4
20260505100503 12 31 4.8 12.9 0.00 0.00 0.00 72 1011.4
20260505100003 12 24 4.8 17.7 0.00 0.00 0.00 72 1011.5
20260505095717 12 22 4.8 17.7 0.00 0.00 0.00 72 1011.5
20260505095003 12 30 4.8 17.7 0.00 0.00 0.00 72 1011.5
20260505094503 12 23 6.4 17.7 0.00 0.00 0.00 72 1011.5
20260505094003 12 13 8.0 19.3 0.00 0.00 0.00 73 1011.5
20260505093503 12 24 8.0 22.5 0.00 0.00 0.00 73 1011.5
20260505093003 12 31 8.0 24.1 0.00 0.00 0.00 73 1011.6
20260505092503 12 26 6.4 24.1 0.00 0.00 0.00 73 1011.7
20260505092003 12 27 6.4 17.7 0.00 0.00 0.00 73 1011.8
20260505091503 12 32 6.4 22.5 0.00 0.00 0.00 73 1011.6
20260505091003 12 32 8.0 22.5 0.00 0.00 0.00 74 1011.8
20260505090503 12 25 8.0 19.3 0.00 0.00 0.00 73 1011.8
20260505090217 12 24 6.4 19.3 0.00 0.00 0.00 73 1011.7
20260505085503 11 34 4.8 19.3 0.00 0.00 0.00 73 1011.8
20260505085003 11 36 6.4 22.5 0.00 0.00 0.00 73 1011.8
20260505084503 11 32 9.7 22.5 0.00 0.00 0.00 73 1011.9
20260505084003 11 29 9.7 19.3 0.00 0.00 0.00 75 1011.7
20260505083503 11 29 8.0 17.7 0.00 0.00 0.00 76 1011.8
20260505083003 11 19 8.0 22.5 0.00 0.00 0.00 76 1011.9
20260505082503 11 21 9.7 22.5 0.00 0.00 0.00 77 1011.9
20260505082003 11 25 8.0 22.5 0.00 0.00 0.00 79 1011.9
20260505081503 11 38 8.0 24.1 0.00 0.00 0.00 78 1011.7
20260505081003 11 47 8.0 24.1 0.00 0.00 0.00 79 1011.9
20260505080718 10 42 9.7 24.1 0.00 0.00 0.00 79 1011.8
20260505080217 10 28 8.0 19.3 0.00 0.00 0.00 79 1011.7
20260505075503 10 23 8.0 19.3 0.00 0.00 0.00 80 1011.7
20260505075217 10 33 8.0 17.7 0.00 0.00 0.00 80 1011.9
20260505074503 10 30 6.4 17.7 0.00 0.00 0.00 81 1011.8
20260505074003 10 22 6.4 17.7 0.00 0.00 0.00 81 1011.9
20260505073718 10 21 6.4 12.9 0.00 0.00 0.00 82 1011.9
20260505073003 10 33 6.4 19.3 0.00 0.00 0.00 83 1011.9
20260505072718 10 33 6.4 19.3 0.00 0.00 0.00 83 1012.1
20260505072003 9 22 6.4 22.5 0.00 0.00 0.00 83 1012.0
20260505071718 9 18 6.4 24.1 0.00 0.00 0.00 83 1012.0
20260505071217 9 19 6.4 24.1 0.00 0.00 0.00 83 1011.8
20260505070503 9 24 6.4 16.1 0.00 0.00 0.00 84 1012.2
20260505070003 9 26 8.0 19.3 0.00 0.00 0.00 84 1012.1
20260505065503 9 22 8.0 19.3 0.00 0.00 0.00 84 1011.9
20260505065003 9 26 8.0 16.1 0.00 0.00 0.00 85 1012.0
20260505064503 8 23 8.0 19.3 0.00 0.00 0.00 85 1012.2
20260505064003 8 23 9.7 19.3 0.00 0.00 0.00 85 1012.2
20260505063717 8 22 9.7 22.5 0.00 0.00 0.00 85 1012.2
20260505063003 8 21 8.0 22.5 0.00 0.00 0.00 86 1012.1
20260505062503 8 16 6.4 16.1 0.00 0.00 0.00 86 1012.2
20260505062003 8 20 6.4 16.1 0.00 0.00 0.00 86 1012.0
20260505061503 7 23 4.8 16.1 0.00 0.00 0.00 86 1012.2
20260505061003 7 20 3.2 12.9 0.00 0.00 0.00 86 1012.0
20260505060503 7 21 3.2 12.9 0.00 0.00 0.00 86 1012.2
20260505060003 7 20 4.8 12.9 0.00 0.00 0.00 86 1012.0
20260505055503 7 19 6.4 12.9 0.00 0.00 0.00 87 1012.1
20260505055003 7 22 6.4 12.9 0.00 0.00 0.00 87 1012.2
20260505054503 7 18 4.8 12.9 0.00 0.00 0.00 87 1012.0
20260505054003 7 13 6.4 16.1 0.00 0.00 0.00 87 1012.1
20260505053503 7 22 6.4 16.1 0.00 0.00 0.00 87 1012.2
20260505053003 7 22 4.8 16.1 0.00 0.00 0.00 87 1012.1
20260505052503 7 18 4.8 8.0 0.00 0.00 0.00 87 1012.1
20260505052003 6 17 4.8 11.3 0.00 0.00 0.00 87 1012.3
20260505051503 6 19 3.2 11.3 0.00 0.00 0.00 87 1012.2
20260505051003 6 21 3.2 8.0 0.00 0.00 0.00 87 1012.0
20260505050503 6 21 3.2 8.0 0.00 0.00 0.00 87 1012.0
20260505041503 6 17 0.0 4.8 0.00 0.00 0.00 86 1012.0
20260505041003 6 16 0.0 6.4 0.00 0.00 0.00 86 1012.3
20260505040503 6 17 1.6 8.0 0.00 0.00 0.00 86 1012.1
20260505040004 6 17 1.6 8.0 0.00 0.00 0.00 86 1012.2
20260505035503 6 16 1.6 8.0 0.00 0.00 0.00 86 1012.0
20260505035003 6 18 1.6 8.0 0.00 0.00 0.00 86 1012.0
20260505034723 6 17 1.6 8.0 0.00 0.00 0.00 86 1012.1
20260505034003 6 18 3.2 11.3 0.00 0.00 0.00 86 1012.2
20260505033503 6 18 3.2 11.3 0.00 0.00 0.00 86 1012.1
20260505033217 6 16 3.2 11.3 0.00 0.00 0.00 86 1012.1
20260505032503 6 17 3.2 6.4 0.00 0.00 0.00 86 1012.1
20260505032003 6 17 3.2 6.4 0.00 0.00 0.00 86 1012.3
20260505031503 6 17 1.6 6.4 0.00 0.00 0.00 86 1012.3
20260505031003 6 18 1.6 6.4 0.00 0.00 0.00 86 1012.2
20260505030503 6 16 1.6 4.8 0.00 0.00 0.00 86 1012.4
20260505030003 6 18 0.0 4.8 0.00 0.00 0.00 85 1012.3
20260505025503 6 18 0.0 6.4 0.00 0.00 0.00 86 1012.4
20260505025003 6 16 0.0 6.4 0.00 0.00 0.00 86 1012.4
20260505024718 6 16 0.0 4.8 0.00 0.00 0.00 85 1012.2
20260505024217 6 16 0.0 1.6 0.00 0.00 0.00 85 1012.3
20260505023718 6 0 0.0 0.0 0.00 0.00 0.00 85 1012.4
20260505023003 6 18 0.0 1.6 0.00 0.00 0.00 85 1012.2
20260505022503 6 18 0.0 1.6 0.00 0.00 0.00 85 1012.3
20260505022003 6 18 0.0 1.6 0.00 0.00 0.00 85 1012.4
20260505021503 6 0 0.0 0.0 0.00 0.00 0.00 84 1012.5
20260505021003 6 0 0.0 0.0 0.00 0.00 0.00 84 1012.5
20260505020503 6 17 0.0 4.8 0.00 0.00 0.00 84 1012.3
20260505020003 7 18 0.0 4.8 0.00 0.00 0.00 84 1012.4
20260505015503 7 19 1.6 6.4 0.00 0.00 0.00 84 1012.3
20260505015003 7 20 1.6 6.4 0.00 0.00 0.00 84 1012.7
20260505014503 7 20 1.6 6.4 0.00 0.00 0.00 84 1012.4
20260505014003 7 20 1.6 6.4 0.00 0.00 0.00 84 1012.3
20260505013503 7 21 0.0 4.8 0.00 0.00 0.00 85 1012.4
20260505013003 7 21 0.0 4.8 0.00 0.00 0.00 85 1012.4
20260505012503 7 24 1.6 4.8 0.00 0.00 0.00 84 1012.6
20260505012003 7 24 1.6 4.8 0.00 0.00 0.00 84 1012.5
20260505011503 7 24 0.0 4.8 0.00 0.00 0.00 84 1012.4
20260505011003 7 28 0.0 6.4 0.00 0.00 0.00 84 1012.6
20260505010503 7 28 0.0 6.4 0.00 0.00 0.00 84 1012.5
20260505010218 7 28 0.0 6.4 0.00 0.00 0.00 84 1012.4
20260505005503 7 26 0.0 1.6 0.00 0.00 0.00 84 1012.5
20260505005004 7 0 0.0 0.0 0.00 0.00 0.00 84 1012.7
20260505004503 7 0 0.0 0.0 0.00 0.00 0.00 84 1012.7
20260505004003 7 0 0.0 0.0 0.00 0.00 0.00 84 1012.5
20260505003503 7 0 0.0 0.0 0.00 0.00 0.00 84 1012.8
20260505003218 7 0 0.0 0.0 0.00 0.00 0.00 84 1012.7
20260505002503 7 0 0.0 0.0 0.00 0.00 0.00 84 1012.7
20260505002003 7 0 0.0 0.0 0.00 0.00 0.00 84 1012.9
20260505001717 7 0 0.0 0.0 0.00 0.00 0.00 84 1012.8
20260505001003 7 0 0.0 0.0 0.00 0.00 0.00 85 1012.9
20260505000717 7 0 0.0 0.0 0.00 0.00 0.00 85 1012.9
20260505000003 6 0 0.0 0.0 0.00 0.00 0.00 84 1013.0
20260504235503 6 0 0.0 0.0 0.00 0.00 0.00 84 1013.0
20260504235003 6 0 0.0 0.0 0.00 0.00 0.00 84 1012.9
20260504234503 6 0 0.0 0.0 0.00 0.00 0.00 83 1012.8
20260504234003 6 0 0.0 0.0 0.00 0.00 0.00 83 1013.0
20260504233503 7 0 0.0 0.0 0.00 0.00 0.00 83 1013.0
20260504233003 7 0 0.0 0.0 0.00 0.00 0.00 83 1013.0
20260504232717 7 0 0.0 0.0 0.00 0.00 0.00 83 1013.0
20260504232003 7 0 0.0 0.0 0.00 0.00 0.00 83 1012.9
20260504231503 7 0 0.0 0.0 0.00 0.00 0.00 82 1013.1
20260504231003 7 0 0.0 0.0 0.00 0.00 0.00 82 1013.2
20260504230503 7 0 0.0 0.0 0.00 0.00 0.00 82 1013.1
20260504230003 7 0 0.0 0.0 0.00 0.00 0.00 82 1013.0
20260504225503 7 0 0.0 0.0 0.00 0.00 0.00 82 1013.1
20260504225003 8 0 0.0 0.0 0.00 0.00 0.00 82 1013.0
20260504224503 8 0 0.0 0.0 0.00 0.00 0.00 82 1013.0
20260504224003 8 0 0.0 0.0 0.00 0.00 0.00 82 1013.1
20260504223503 8 0 0.0 0.0 0.00 0.00 0.00 82 1013.2
20260504223217 8 0 0.0 0.0 0.00 0.00 0.00 82 1013.2
20260504222503 8 0 0.0 0.0 0.00 0.00 0.00 82 1013.4
20260504222003 8 0 0.0 0.0 0.00 0.00 0.00 82 1013.4
20260504221503 8 0 0.0 0.0 0.00 0.00 0.00 82 1013.4
20260504221003 8 0 0.0 0.0 0.00 0.03 0.00 82 1013.4
20260504220718 8 0 0.0 0.0 0.00 0.03 0.00 82 1013.5
20260504220217 8 0 0.0 0.0 0.00 0.03 0.00 82 1013.3
20260504215503 8 0 0.0 0.0 0.00 0.03 0.03 82 1013.5
20260504215003 8 0 0.0 0.0 0.00 0.03 0.03 82 1013.6
20260504214718 8 0 0.0 0.0 0.00 0.03 0.03 82 1013.7
20260504214003 8 0 0.0 0.0 0.00 0.03 0.03 82 1013.7
20260504213503 8 0 0.0 0.0 0.00 0.03 0.03 81 1013.9
20260504213003 8 0 0.0 0.0 0.00 0.03 0.03 81 1013.6
20260504212503 8 0 0.0 0.0 0.00 0.03 0.03 81 1013.7
20260504212003 8 0 0.0 0.0 0.00 0.03 0.03 81 1013.6
20260504211503 8 0 0.0 0.0 0.00 0.03 0.03 81 1013.6
20260504211003 9 0 0.0 0.0 0.00 0.03 0.03 80 1013.7
20260504210503 9 0 0.0 0.0 0.00 0.03 0.03 80 1013.5
20260504210003 9 0 0.0 0.0 0.00 0.03 0.03 80 1013.5
20260504205503 9 0 0.0 0.0 0.00 0.03 0.03 80 1013.5
20260504205217 9 0 0.0 0.0 0.00 0.03 0.03 80 1013.4
20260504204718 9 0 0.0 0.0 0.00 0.03 0.03 80 1013.5
20260504204217 9 0 0.0 0.0 0.00 0.03 0.03 80 1013.6
20260504203718 9 0 0.0 0.0 0.00 0.03 0.03 80 1013.3
20260504203003 9 0 0.0 0.0 0.00 0.05 0.03 80 1013.4
20260504202503 9 0 0.0 0.0 0.00 0.05 0.03 80 1013.7
20260504202003 9 0 0.0 0.0 0.00 0.05 0.03 80 1013.6
20260504201717 9 0 0.0 0.0 0.00 0.05 0.03 79 1013.5
20260504201003 10 0 0.0 0.0 0.00 0.05 0.03 79 1013.5
20260504200503 10 0 0.0 0.0 0.00 0.05 0.03 79 1013.4
20260504200003 10 0 0.0 0.0 0.00 0.08 0.03 78 1013.4
20260504195503 10 0 0.0 0.0 0.00 0.08 0.03 78 1013.5
20260504195003 10 0 0.0 0.0 0.00 0.08 0.03 78 1013.6
20260504194503 10 0 0.0 0.0 0.00 0.08 0.03 78 1013.5
20260504194003 10 0 0.0 0.0 0.00 0.08 0.03 78 1013.4
20260504193503 11 0 0.0 0.0 0.00 0.08 0.03 77 1013.4
20260504193003 11 0 0.0 0.0 0.00 0.10 0.03 77 1013.2
20260504192503 11 0 0.0 0.0 0.00 0.10 0.03 77 1013.1
20260504192003 11 0 0.0 0.0 0.00 0.10 0.03 77 1013.2
20260504191503 11 0 0.0 0.0 0.00 0.13 0.03 77 1013.2
20260504191003 11 0 0.0 0.0 0.00 0.15 0.03 77 1013.1
20260504190503 11 0 0.0 0.0 0.00 0.15 0.03 77 1013.1
20260504190218 12 0 0.0 0.0 0.00 0.15 0.03 77 1012.9
20260504185503 12 0 0.0 0.0 0.00 0.15 0.03 77 1013.0
20260504185003 12 0 0.0 0.0 0.00 0.18 0.03 76 1012.9
20260504184503 12 0 0.0 0.0 0.00 0.18 0.03 76 1013.0
20260504184003 12 0 0.0 0.0 0.00 0.18 0.03 76 1013.0
20260504183503 12 0 0.0 0.0 0.00 0.18 0.03 76 1013.1
20260504183218 12 0 0.0 0.0 0.00 0.18 0.03 76 1013.0
20260504182717 12 0 0.0 0.0 0.00 0.18 0.03 75 1013.1
20260504182003 13 145 0.0 1.6 0.00 0.18 0.03 75 1012.8
20260504181503 13 145 0.0 1.6 0.00 0.18 0.03 75 1013.0
20260504181003 13 0 0.0 0.0 0.00 0.18 0.03 75 1012.8
20260504180503 13 124 0.0 1.6 0.00 0.18 0.03 75 1012.9
20260504180003 13 116 0.0 1.6 0.00 0.18 0.03 74 1012.6
20260504175503 13 109 0.0 1.6 0.00 0.18 0.03 74 1012.8
20260504175003 13 109 0.0 1.6 0.00 0.18 0.03 74 1012.8
20260504174503 13 0 0.0 0.0 0.00 0.18 0.03 74 1012.6
20260504174218 13 0 0.0 1.6 0.00 0.18 0.03 74 1012.8